SCP
0 0 0 0 0 0 0 0 0 0 0 0 0 0 0 0 0 0 0 -0 0 0 0 0 0 -0 -0 -1 -1 -1 -1 -1 -1 -1 -0 0 1 1 2 2 3 2 2 2
0 0 0 0 0 0 0 0 0 0 0 0 0 0 0 0 0 0 0 0 0 0 0 0 0 0 -0 -1 -1 -1 -1 -1 0 1 1 2 4 4 5 4 3 3 2 2
0 -0 0 0 0 0 0 0 0 0 0 0 0 0 0 0 0 0 0 0 0 0 0 0 0 0 0 -0 -0 -0 -0 1 1 2 3 3 6 2 0 0 2 2 0 1
0 -0 0 0 0 0 0 0 0 0 0 0 0 0 0 0 0 0 1 0 1 1 0 0 0 0 0 0 1 0 1 2 2 1 2 4 0 0 2 1 0 1 4 2
0 0 0 0 0 0 0 0 0 0 0 0 0 0 0 0 0 0 1 1 1 1 0 1 1 1 1 1 1 1 1 0 1 3 1 0 0 0 0 1 2 3 1 0
0 0 0 -0 0 0 0 0 0 0 0 0 0 -0 1 0 0 0 0 0 1 1 1 1 1 2 2 1 1 1 2 3 1 1 0 1 0 0 0 1 1 0 0 0
0 0 0 0 0 0 0 1 1 1 1 1 1 1 1 0 1 0 0 0 0 1 1 2 2 2 2 1 1 2 2 2 1 2 1 0 1 4 2 1 0 0 0 0
-0 0 0 1 -0 0 1 0 0 1 1 1 1 1 1 1 0 1 0 0 0 1 1 1 1 2 3 4 2 1 1 1 1 1 0 0 1 1 1 0 0 0 0 0
0 0 0 0 0 0 1 1 0 0 0 0 1 1 1 0 0 0 1 1 0 0 1 1 1 1 2 2 2 1 1 2 3 1 0 1 1 1 0 0 0 0 0 0
0 -0 -0 0 0 0 0 0 0 0 0 0 0 0 0 0 0 0 1 0 1 1 1 1 1 1 0 0 0 0 1 2 1 1 1 1 1 1 0 0 0 0 0 0
0 0 0 0 0 0 0 0 0 0 0 0 0 0 0 0 0 0 1 1 1 0 0 1 0 1 1 1 1 1 1 1 1 1 1 1 1 0 0 0 0 0 0 0
0 0 1 0 0 0 0 0 0 0 0 0 0 0 0 0 0 0 0 1 1 1 1 1 0 0 1 1 0 0 0 1 1 1 1 1 0 0 0 0 0 0 0 0
0 0 0 0 0 0 0 0 0 0 0 0 0 0 0 0 0 0 0 0 1 1 2 2 1 1 1 1 1 1 0 1 1 1 1 0 0 0 0 0 0 0 0 0
0 0 0 0 0 0 0 0 0 0 0 0 -0 0 0 0 0 0 0 0 0 2 2 2 2 2 1 1 1 1 1 1 0 0 0 0 1 1 0 0 0 0 0 0
0 0 0 0 -0 -0 0 -0 0 0 0 0 0 0 0 0 0 0 0 0 1 1 1 2 2 1 2 1 1 1 1 0 0 0 0 0 1 1 0 0 0 0 0 0
0 0 0 0 0 -0 -0 -0 0 0 0 0 -0 0 0 0 0 0 1 1 1 1 1 1 1 1 1 0 1 1 1 0 0 1 1 1 1 0 0 0 0 0 0 0
0 0 0 -0 -0 -0 -0 0 0 0 0 0 -0 0 0 0 0 1 0 0 1 1 2 1 1 1 1 0 1 0 0 0 0 1 0 1 1 0 0 0 0 0 0 0
0 0 0 0 -0 -0 0 0 0 0 0 0 0 0 0 0 -0 0 0 1 1 1 1 1 1 1 1 0 0 0 0 0 0 1 1 1 0 0 0 0 0 0 0 0
0 0 0 0 0 0 0 0 0 0 0 0 0 0 0 0 0 0 0 0 0 1 0 1 0 0 0 0 0 0 0 0 0 0 0 0 0 0 0 0 0 0 0 0
0 0 0 0 0 0 0 0 0 0 0 0 0 0 0 0 0 0 0 0 0 1 1 1 0 0 0 0 0 0 0 0 0 0 0 0 0 0 0 0 0 0 0 0
0 0 0 0 0 0 0 0 0 0 1 0 0 0 0 0 0 0 0 0 0 0 0 0 0 0 0 0 0 0 0 0 0 0 0 0 0 0 0 0 0 0 0 0
0 0 0 0 0 0 0 0 0 0 0 0 0 0 0 0 0 0 0 0 0 0 -0 0 0 0 0 0 0 0 0 0 0 0 0 0 0 0 0 0 0 0 0 0
0 0 0 0 0 0 0 0 0 0 0 0 0 0 0 0 0 0 0 0 0 0 0 0 0 0 0 0 0 0 0 0 0 0 0 0 0 0 0 0 0 0 0 0
0 0 0 0 0 0 0 0 0 0 0 0 0 0 0 0 0 0 0 0 0 0 0 0 0 0 0 0 0 0 0 0 0 0 0 0 0 0 0 0 0 0 0 0
0 0 0 0 0 0 0 0 0 0 0 0 0 0 0 0 0 1 1 0 0 0 0 0 0 0 0 0 0 0 0 0 0 0 0 0 0 0 0 0 0 0 0 0
-0 0 0 0 0 0 0 0 0 0 0 0 0 1 0 0 0 0 1 0 0 0 0 0 0 0 0 0 0 0 0 0 0 0 0 0 0 0 0 0 0 -0 -0 -0
-0 -0 -0 -0 0 0 0 0 0 0 0 0 0 1 1 1 0 0 0 0 0 0 0 0 0 -0 -0 0 -0 -0 -0 -0 -0 0 0 0 -0 -0 -0 0 0 0 -0 0
Wind_Speed_500mb
30 33 13 32 25 36 28 35 35 10 7 35 19 22 18 20 17 10 9 19 33 34 32 34 40 48 48 52 58 54 61 60 66 66 57 49 52 48 48 48 51 51 47 45
23 36 22 33 33 33 35 32 33 15 5 26 24 20 19 17 21 20 17 12 12 24 32 37 41 44 52 63 64 62 70 72 62 60 59 53 53 47 44 44 49 58 56 51
21 44 34 29 32 35 28 27 15 25 9 21 20 19 19 21 22 24 25 19 15 19 24 32 33 35 42 52 55 61 70 63 63 67 61 52 48 52 56 20 18 24 17 15
9 40 17 9 20 16 22 23 17 20 27 19 10 22 24 20 22 25 30 31 20 17 22 23 29 31 32 39 49 55 61 58 59 54 48 58 59 56 26 18 48 78 62 51
24 15 15 48 15 11 11 6 16 14 18 15 5 15 23 17 20 23 27 31 30 19 14 17 16 23 31 37 39 41 41 44 46 54 59 53 46 42 18 20 26 40 54 50
29 30 8 42 20 63 4 17 15 17 14 6 8 14 18 15 17 20 23 27 29 22 10 4 9 21 29 34 34 37 38 57 60 55 48 44 28 33 72 62 41 43 50 46
28 26 28 18 3 8 20 11 16 14 15 14 17 18 9 11 16 19 18 22 23 23 15 4 6 16 25 29 32 50 52 50 46 42 38 39 32 33 23 34 30 49 44 46
33 23 16 15 14 13 11 4 11 13 9 7 7 8 10 11 15 17 15 16 19 19 17 11 5 11 20 25 41 37 36 35 33 38 52 48 31 24 36 17 32 47 52 48
15 5 39 29 17 15 15 14 10 9 11 12 15 13 12 15 14 17 15 11 10 11 10 6 9 9 21 29 21 26 29 35 36 35 37 45 41 40 35 27 43 51 48 43
21 47 58 9 4 11 14 17 12 14 15 16 19 21 20 20 19 16 12 10 5 0 2 3 5 10 10 14 18 22 34 38 26 10 19 27 39 29 29 38 47 48 44 43
29 22 12 16 4 7 13 14 11 13 14 16 19 24 26 25 19 15 9 5 6 8 5 4 2 8 11 20 24 29 25 26 27 19 24 30 29 28 31 48 47 36 32 33
12 22 34 6 12 17 22 23 22 21 21 20 22 25 26 32 26 18 16 10 9 9 11 10 8 6 8 12 14 20 19 21 20 20 23 31 34 35 35 41 39 38 31 30
25 7 24 41 31 31 36 37 36 33 28 28 27 26 27 29 33 23 21 19 19 15 13 13 12 14 17 19 20 21 20 21 26 30 37 42 43 35 52 48 49 37 45 41
28 28 30 26 30 27 29 32 34 37 39 37 33 22 21 17 25 21 23 22 24 22 19 19 18 16 16 18 19 20 18 33 23 32 39 45 39 36 38 50 42 45 41 39
23 27 36 39 40 44 45 45 42 38 35 38 34 23 19 20 23 22 20 15 17 20 20 18 17 15 24 23 24 25 24 24 28 32 40 45 40 41 41 35 35 34 42 38
28 37 33 34 35 40 41 40 43 41 35 35 36 24 17 16 16 16 14 14 18 20 21 18 16 17 23 19 26 28 37 31 36 43 50 57 47 47 44 38 38 37 38 33
29 27 30 34 36 36 36 35 33 34 29 28 31 28 19 17 16 13 15 18 18 17 16 15 14 16 28 23 26 21 24 30 49 40 45 52 59 42 45 38 39 37 34 34
20 23 27 32 38 37 35 31 29 26 26 25 29 21 18 23 23 19 20 21 18 16 14 15 16 17 29 22 22 29 24 23 46 39 41 54 47 46 45 38 38 38 38 42
14 19 25 29 32 33 32 25 25 26 26 25 25 29 29 27 23 23 22 24 23 18 18 20 24 16 20 22 20 23 25 30 36 53 43 54 45 41 40 43 42 43 42 32
15 19 24 28 27 27 27 19 18 21 22 22 21 21 24 26 24 23 22 23 20 21 30 18 12 16 16 26 21 23 23 26 29 38 41 58 42 44 45 43 46 43 39 27
14 19 23 26 27 24 19 20 17 16 17 15 17 22 25 25 23 18 16 16 20 30 20 22 14 13 18 26 23 19 20 26 27 33 50 45 44 47 42 48 45 37 34 29
14 19 23 26 26 24 21 19 16 15 16 16 16 15 17 17 18 20 19 15 15 22 7 5 10 17 13 21 24 25 25 25 30 36 51 47 48 46 47 48 49 44 30 29
13 18 22 25 27 29 25 18 16 18 17 14 14 15 14 13 14 17 18 20 16 12 9 20 24 22 18 10 20 27 31 31 31 42 53 61 57 67 63 52 42 37 30 26
15 19 25 27 29 30 25 23 22 20 19 20 13 14 12 15 17 14 20 23 23 15 12 21 21 17 9 11 14 22 27 32 37 39 47 58 63 63 72 61 26 33 25 23
23 27 33 32 33 31 28 26 25 21 19 18 19 19 18 13 15 13 16 19 18 10 14 17 9 4 7 5 8 13 25 29 37 46 55 76 80 77 70 58 53 39 29 21
32 35 37 34 33 29 30 27 24 22 23 24 20 19 17 15 17 16 17 19 20 22 12 11 13 14 4 2 4 5 16 22 35 47 72 82 79 62 59 53 37 31 26 24
44 42 38 36 30 31 28 27 28 28 24 24 24 27 21 17 22 22 23 19 20 19 18 19 14 15 13 13 12 36 38 46 56 70 75 71 67 66 45 34 33 30 24 20
Wind_Direction_500mb
276 290 297 282 257 213 238 255 252 331 203 102 74 58 44 32 21 6 246 242 222 220 215 206 209 213 212 208 207 207 210 211 220 228 225 217 214 218 208 209 206 200 195 193
307 274 256 256 255 266 226 232 254 284 291 67 69 62 40 23 23 19 3 317 265 211 216 218 217 215 214 214 210 205 215 218 220 218 219 214 211 206 206 214 216 199 195 190
293 305 233 235 245 233 241 225 238 243 64 49 52 69 54 39 43 26 14 346 294 276 234 228 222 222 218 212 209 211 212 213 210 219 212 204 198 192 192 178 322 188 235 162
139 284 276 271 4 216 235 211 219 284 78 64 34 94 73 46 39 19 11 4 345 291 262 245 233 215 203 203 202 207 211 203 206 207 199 199 199 185 160 174 286 225 255 201
287 199 193 298 202 201 224 276 262 241 78 67 350 152 108 61 39 25 10 4 358 340 304 258 244 212 187 194 196 198 196 195 197 198 196 197 181 182 236 299 256 258 214 205
252 283 203 270 6 3 0 209 40 15 61 346 288 255 81 43 27 29 13 12 9 3 355 304 197 185 188 190 194 194 188 194 199 205 199 186 186 326 272 282 247 225 193 193
219 256 271 106 230 321 311 49 27 31 56 15 23 24 39 20 12 11 7 14 22 27 29 16 173 185 185 186 189 197 205 209 212 201 198 186 250 254 248 182 175 183 195 185
304 225 240 21 174 204 98 98 14 4 51 20 3 355 351 347 351 357 351 3 16 32 44 55 119 181 181 187 208 209 215 204 191 187 193 215 262 235 178 200 190 185 184 184
279 58 326 350 50 71 69 85 28 10 342 321 303 299 308 304 308 323 331 323 345 6 24 68 112 171 188 217 200 189 182 170 176 199 223 244 236 204 188 190 200 188 188 192
287 125 197 162 67 51 45 41 15 23 353 333 307 293 287 292 298 302 309 279 283 342 45 38 120 148 178 168 169 171 177 190 196 256 235 189 191 199 200 179 186 194 189 195
298 283 203 161 142 17 17 351 339 327 332 333 317 300 279 268 266 276 287 243 208 197 185 228 195 184 183 171 175 178 186 195 217 219 222 207 203 209 194 180 190 188 189 185
303 31 337 19 338 307 302 298 292 285 292 307 305 298 287 265 258 258 269 224 215 196 189 198 181 194 217 197 183 186 195 205 215 205 243 204 196 172 168 183 178 193 191 181
291 291 229 284 295 295 286 282 277 275 270 287 294 295 287 268 253 250 261 257 238 232 217 200 189 188 197 208 196 196 206 228 226 231 200 196 177 176 183 189 194 204 189 192
295 304 296 292 290 291 293 289 283 271 267 267 274 282 280 267 258 276 281 266 238 230 220 212 206 220 213 212 213 225 222 233 240 203 196 189 183 186 183 184 186 189 193 195
274 288 302 302 293 287 282 279 276 278 276 265 262 261 266 267 263 269 266 254 227 222 221 214 220 216 238 232 244 242 227 245 202 204 204 187 191 187 182 181 183 177 184 182
291 294 295 294 302 297 283 275 270 272 273 265 255 259 257 261 269 267 254 240 225 218 213 215 226 239 247 239 242 248 239 215 207 204 208 195 192 183 177 184 183 179 171 178
287 295 315 313 313 304 291 289 265 268 273 265 251 249 253 258 265 263 258 249 231 229 221 233 244 246 257 265 227 234 236 226 208 204 219 195 184 185 191 187 186 179 171 179
280 297 310 314 315 309 301 282 269 269 270 266 256 260 252 250 253 262 251 241 237 227 228 235 239 238 272 274 244 236 244 226 208 208 213 186 191 195 186 186 183 178 173 176
301 313 318 318 321 317 312 286 269 264 270 269 256 250 251 256 259 258 244 234 233 233 243 225 263 256 258 270 247 254 239 225 219 212 214 196 194 196 185 182 182 172 158 173
315 320 323 327 329 332 329 312 283 274 274 273 265 262 264 260 251 238 231 232 226 230 226 241 262 245 244 256 258 235 236 227 224 222 208 187 193 191 183 181 175 164 173 183
328 329 330 332 334 333 327 326 321 300 295 306 280 280 281 271 256 243 240 253 239 268 263 271 265 249 253 235 236 233 233 225 222 212 209 197 194 182 173 175 171 173 176 179
345 342 340 338 336 330 325 324 309 315 307 303 301 296 284 271 256 246 232 236 244 269 244 278 264 262 249 228 220 227 232 233 220 207 196 184 171 165 174 179 171 164 175 180
333 337 338 338 337 333 325 318 311 320 318 307 311 308 288 270 248 245 251 250 223 240 145 231 271 287 284 260 246 233 233 231 221 210 210 196 187 179 168 170 165 162 171 176
320 325 329 329 326 330 328 319 309 303 312 317 317 292 270 259 258 229 255 228 208 219 208 261 279 285 265 279 269 242 233 233 227 216 204 193 175 164 156 153 182 159 158 171
296 301 309 310 315 317 314 315 305 301 294 304 305 286 260 244 228 229 218 215 219 181 241 248 252 131 75 336 301 226 219 212 215 206 189 170 161 159 161 166 151 147 172 181
281 289 293 293 294 300 303 301 298 291 283 282 282 281 271 233 233 212 205 213 188 189 206 193 146 100 174 124 68 145 173 185 196 191 172 164 159 155 152 148 150 173 177 181
273 276 280 283 280 288 291 288 288 281 275 269 276 262 257 237 211 211 214 209 196 182 188 174 172 148 173 137 125 131 133 134 143 147 151 147 156 155 144 146 165 178 171 165
Wind_Speed_850mb
30 33 13 32 25 36 28 35 35 10 7 35 19 22 18 20 17 10 9 19 33 34 32 34 40 48 48 52 58 54 61 60 66 66 57 49 52 48 48 48 51 51 47 45
23 36 22 33 33 33 35 32 33 15 5 26 24 20 19 17 21 20 17 12 12 24 32 37 41 44 52 63 64 62 70 72 62 60 59 53 53 47 44 44 49 58 56 51
21 44 34 29 32 35 28 27 15 25 9 21 20 19 19 21 22 24 25 19 15 19 24 32 33 35 42 52 55 61 70 63 63 67 61 52 48 52 56 20 18 24 17 15
9 40 17 9 20 16 22 23 17 20 27 19 10 22 24 20 22 25 30 31 20 17 22 23 29 31 32 39 49 55 61 58 59 54 48 58 59 56 26 18 48 78 62 51
24 15 15 48 15 11 11 6 16 14 18 15 5 15 23 17 20 23 27 31 30 19 14 17 16 23 31 37 39 41 41 44 46 54 59 53 46 42 18 20 26 40 54 50
29 30 8 42 20 63 4 17 15 17 14 6 8 14 18 15 17 20 23 27 29 22 10 4 9 21 29 34 34 37 38 57 60 55 48 44 28 33 72 62 41 43 50 46
28 26 28 18 3 8 20 11 16 14 15 14 17 18 9 11 16 19 18 22 23 23 15 4 6 16 25 29 32 50 52 50 46 42 38 39 32 33 23 34 30 49 44 46
33 23 16 15 14 13 11 4 11 13 9 7 7 8 10 11 15 17 15 16 19 19 17 11 5 11 20 25 41 37 36 35 33 38 52 48 31 24 36 17 32 47 52 48
15 5 39 29 17 15 15 14 10 9 11 12 15 13 12 15 14 17 15 11 10 11 10 6 9 9 21 29 21 26 29 35 36 35 37 45 41 40 35 27 43 51 48 43
21 47 58 9 4 11 14 17 12 14 15 16 19 21 20 20 19 16 12 10 5 0 2 3 5 10 10 14 18 22 34 38 26 10 19 27 39 29 29 38 47 48 44 43
29 22 12 16 4 7 13 14 11 13 14 16 19 24 26 25 19 15 9 5 6 8 5 4 2 8 11 20 24 29 25 26 27 19 24 30 29 28 31 48 47 36 32 33
12 22 34 6 12 17 22 23 22 21 21 20 22 25 26 32 26 18 16 10 9 9 11 10 8 6 8 12 14 20 19 21 20 20 23 31 34 35 35 41 39 38 31 30
25 7 24 41 31 31 36 37 36 33 28 28 27 26 27 29 33 23 21 19 19 15 13 13 12 14 17 19 20 21 20 21 26 30 37 42 43 35 52 48 49 37 45 41
28 28 30 26 30 27 29 32 34 37 39 37 33 22 21 17 25 21 23 22 24 22 19 19 18 16 16 18 19 20 18 33 23 32 39 45 39 36 38 50 42 45 41 39
23 27 36 39 40 44 45 45 42 38 35 38 34 23 19 20 23 22 20 15 17 20 20 18 17 15 24 23 24 25 24 24 28 32 40 45 40 41 41 35 35 34 42 38
28 37 33 34 35 40 41 40 43 41 35 35 36 24 17 16 16 16 14 14 18 20 21 18 16 17 23 19 26 28 37 31 36 43 50 57 47 47 44 38 38 37 38 33
29 27 30 34 36 36 36 35 33 34 29 28 31 28 19 17 16 13 15 18 18 17 16 15 14 16 28 23 26 21 24 30 49 40 45 52 59 42 45 38 39 37 34 34
20 23 27 32 38 37 35 31 29 26 26 25 29 21 18 23 23 19 20 21 18 16 14 15 16 17 29 22 22 29 24 23 46 39 41 54 47 46 45 38 38 38 38 42
14 19 25 29 32 33 32 25 25 26 26 25 25 29 29 27 23 23 22 24 23 18 18 20 24 16 20 22 20 23 25 30 36 53 43 54 45 41 40 43 42 43 42 32
15 19 24 28 27 27 27 19 18 21 22 22 21 21 24 26 24 23 22 23 20 21 30 18 12 16 16 26 21 23 23 26 29 38 41 58 42 44 45 43 46 43 39 27
14 19 23 26 27 24 19 20 17 16 17 15 17 22 25 25 23 18 16 16 20 30 20 22 14 13 18 26 23 19 20 26 27 33 50 45 44 47 42 48 45 37 34 29
14 19 23 26 26 24 21 19 16 15 16 16 16 15 17 17 18 20 19 15 15 22 7 5 10 17 13 21 24 25 25 25 30 36 51 47 48 46 47 48 49 44 30 29
13 18 22 25 27 29 25 18 16 18 17 14 14 15 14 13 14 17 18 20 16 12 9 20 24 22 18 10 20 27 31 31 31 42 53 61 57 67 63 52 42 37 30 26
15 19 25 27 29 30 25 23 22 20 19 20 13 14 12 15 17 14 20 23 23 15 12 21 21 17 9 11 14 22 27 32 37 39 47 58 63 63 72 61 26 33 25 23
23 27 33 32 33 31 28 26 25 21 19 18 19 19 18 13 15 13 16 19 18 10 14 17 9 4 7 5 8 13 25 29 37 46 55 76 80 77 70 58 53 39 29 21
32 35 37 34 33 29 30 27 24 22 23 24 20 19 17 15 17 16 17 19 20 22 12 11 13 14 4 2 4 5 16 22 35 47 72 82 79 62 59 53 37 31 26 24
44 42 38 36 30 31 28 27 28 28 24 24 24 27 21 17 22 22 23 19 20 19 18 19 14 15 13 13 12 36 38 46 56 70 75 71 67 66 45 34 33 30 24 20
Wind_Direction_850mb
276 290 297 282 257 213 238 255 252 331 203 102 74 58 44 32 21 6 246 242 222 220 215 206 209 213 212 208 207 207 210 211 220 228 225 217 214 218 208 209 206 200 195 193
307 274 256 256 255 266 226 232 254 284 291 67 69 62 40 23 23 19 3 317 265 211 216 218 217 215 214 214 210 205 215 218 220 218 219 214 211 206 206 214 216 199 195 190
293 305 233 235 245 233 241 225 238 243 64 49 52 69 54 39 43 26 14 346 294 276 234 228 222 222 218 212 209 211 212 213 210 219 212 204 198 192 192 178 322 188 235 162
139 284 276 271 4 216 235 211 219 284 78 64 34 94 73 46 39 19 11 4 345 291 262 245 233 215 203 203 202 207 211 203 206 207 199 199 199 185 160 174 286 225 255 201
287 199 193 298 202 201 224 276 262 241 78 67 350 152 108 61 39 25 10 4 358 340 304 258 244 212 187 194 196 198 196 195 197 198 196 197 181 182 236 299 256 258 214 205
252 283 203 270 6 3 0 209 40 15 61 346 288 255 81 43 27 29 13 12 9 3 355 304 197 185 188 190 194 194 188 194 199 205 199 186 186 326 272 282 247 225 193 193
219 256 271 106 230 321 311 49 27 31 56 15 23 24 39 20 12 11 7 14 22 27 29 16 173 185 185 186 189 197 205 209 212 201 198 186 250 254 248 182 175 183 195 185
304 225 240 21 174 204 98 98 14 4 51 20 3 355 351 347 351 357 351 3 16 32 44 55 119 181 181 187 208 209 215 204 191 187 193 215 262 235 178 200 190 185 184 184
279 58 326 350 50 71 69 85 28 10 342 321 303 299 308 304 308 323 331 323 345 6 24 68 112 171 188 217 200 189 182 170 176 199 223 244 236 204 188 190 200 188 188 192
287 125 197 162 67 51 45 41 15 23 353 333 307 293 287 292 298 302 309 279 283 342 45 38 120 148 178 168 169 171 177 190 196 256 235 189 191 199 200 179 186 194 189 195
298 283 203 161 142 17 17 351 339 327 332 333 317 300 279 268 266 276 287 243 208 197 185 228 195 184 183 171 175 178 186 195 217 219 222 207 203 209 194 180 190 188 189 185
303 31 337 19 338 307 302 298 292 285 292 307 305 298 287 265 258 258 269 224 215 196 189 198 181 194 217 197 183 186 195 205 215 205 243 204 196 172 168 183 178 193 191 181
291 291 229 284 295 295 286 282 277 275 270 287 294 295 287 268 253 250 261 257 238 232 217 200 189 188 197 208 196 196 206 228 226 231 200 196 177 176 183 189 194 204 189 192
295 304 296 292 290 291 293 289 283 271 267 267 274 282 280 267 258 276 281 266 238 230 220 212 206 220 213 212 213 225 222 233 240 203 196 189 183 186 183 184 186 189 193 195
274 288 302 302 293 287 282 279 276 278 276 265 262 261 266 267 263 269 266 254 227 222 221 214 220 216 238 232 244 242 227 245 202 204 204 187 191 187 182 181 183 177 184 182
291 294 295 294 302 297 283 275 270 272 273 265 255 259 257 261 269 267 254 240 225 218 213 215 226 239 247 239 242 248 239 215 207 204 208 195 192 183 177 184 183 179 171 178
287 295 315 313 313 304 291 289 265 268 273 265 251 249 253 258 265 263 258 249 231 229 221 233 244 246 257 265 227 234 236 226 208 204 219 195 184 185 191 187 186 179 171 179
280 297 310 314 315 309 301 282 269 269 270 266 256 260 252 250 253 262 251 241 237 227 228 235 239 238 272 274 244 236 244 226 208 208 213 186 191 195 186 186 183 178 173 176
301 313 318 318 321 317 312 286 269 264 270 269 256 250 251 256 259 258 244 234 233 233 243 225 263 256 258 270 247 254 239 225 219 212 214 196 194 196 185 182 182 172 158 173
315 320 323 327 329 332 329 312 283 274 274 273 265 262 264 260 251 238 231 232 226 230 226 241 262 245 244 256 258 235 236 227 224 222 208 187 193 191 183 181 175 164 173 183
328 329 330 332 334 333 327 326 321 300 295 306 280 280 281 271 256 243 240 253 239 268 263 271 265 249 253 235 236 233 233 225 222 212 209 197 194 182 173 175 171 173 176 179
345 342 340 338 336 330 325 324 309 315 307 303 301 296 284 271 256 246 232 236 244 269 244 278 264 262 249 228 220 227 232 233 220 207 196 184 171 165 174 179 171 164 175 180
333 337 338 338 337 333 325 318 311 320 318 307 311 308 288 270 248 245 251 250 223 240 145 231 271 287 284 260 246 233 233 231 221 210 210 196 187 179 168 170 165 162 171 176
320 325 329 329 326 330 328 319 309 303 312 317 317 292 270 259 258 229 255 228 208 219 208 261 279 285 265 279 269 242 233 233 227 216 204 193 175 164 156 153 182 159 158 171
296 301 309 310 315 317 314 315 305 301 294 304 305 286 260 244 228 229 218 215 219 181 241 248 252 131 75 336 301 226 219 212 215 206 189 170 161 159 161 166 151 147 172 181
281 289 293 293 294 300 303 301 298 291 283 282 282 281 271 233 233 212 205 213 188 189 206 193 146 100 174 124 68 145 173 185 196 191 172 164 159 155 152 148 150 173 177 181
273 276 280 283 280 288 291 288 288 281 275 269 276 262 257 237 211 211 214 209 196 182 188 174 172 148 173 137 125 131 133 134 143 147 151 147 156 155 144 146 165 178 171 165